Tracking 27420 objects as of 11-Jun-2023
HD Live streaming from Space Station
objects crossing your sky now

STARLINK-5541

Track STARLINK-5541 now!
10-day predictions
STARLINK-5541 is classified as:


NORAD ID: 56475
Int'l Code: 2023-064AD
Perigee: 363.8 km
Apogee: 368.6 km
Inclination: 70.0 °
Period: 91.7 minutes
Semi major axis: 6737 km
RCS: Unknown
Launch date: May 10, 2023
Source: United States (US)
Launch site: AIR FORCE WESTERN TEST RANGE (AFWTR)
Your satellite tracking list
Your tracking list is empty




NASA's NSSDC Master Catalog

Two Line Element Set (TLE):
1 56475U 23064AD  23161.48964810  .00000265  00000-0  39705-5 0  9997
2 56475  69.9958 158.7968 0003601 265.6531  94.4253 15.69936406  4850
Source of the keplerian elements: AFSPC